Volver al catálogo

PICARD

ActivoCienciaSSO
NORAD 36598·PAYLOAD·🇫🇷 France

Lanzado Jun 15, 2010 desde Dombarovsky

Loading…

Próximos Pases (próximas 24 horas)

TLE

ActualizadoSource: Space-Track

Época: Sep 14, 2026, 12:23 UTC

1 36598U 10028A   26257.51613362  .00000171  00000-0  52589-4 0  9993
2 36598  98.2777  89.1319 0001197  87.4261 272.7072 14.52740446860402

Sigue PICARD en tiempo real con AllMySat

Download on the App Store